TimeCST,TemperatureF,Dew PointF,Humidity,Sea Level PressureIn,VisibilityMPH,Wind Direction,Wind SpeedMPH,Gust SpeedMPH,PrecipitationIn,Events,Conditions,WindDirDegrees,DateUTC
12:15 AM,32.0,7.3,36,30.07,10.0,SW,8.1,-,N/A,,Clear,220,2014-01-25 06:15:00
12:35 AM,32.0,7.5,36,30.05,10.0,SSW,8.1,-,N/A,,Clear,210,2014-01-25 06:35:00
12:55 AM,32.0,7.7,36,30.04,10.0,SSW,8.1,-,N/A,,Clear,210,2014-01-25 06:55:00
1:15 AM,31.8,7.9,37,30.04,10.0,SW,8.1,-,N/A,,Clear,220,2014-01-25 07:15:00
1:35 AM,32.0,7.7,36,30.03,10.0,SSW,8.1,-,N/A,,Clear,210,2014-01-25 07:35:00
1:55 AM,31.8,8.2,37,30.02,10.0,SSW,6.9,-,N/A,,Clear,210,2014-01-25 07:55:00
2:15 AM,32.0,8.6,38,30.01,10.0,SW,9.2,-,N/A,,Clear,220,2014-01-25 08:15:00
2:35 AM,32.2,9.3,39,30.01,10.0,SW,8.1,-,N/A,,Clear,230,2014-01-25 08:35:00
2:55 AM,32.9,9.5,38,30.00,10.0,WSW,9.2,-,N/A,,Clear,240,2014-01-25 08:55:00
3:15 AM,32.9,10.0,39,30.00,10.0,WSW,6.9,-,N/A,,Clear,240,2014-01-25 09:15:00
3:35 AM,33.8,10.2,38,29.99,10.0,WSW,8.1,-,N/A,,Clear,240,2014-01-25 09:35:00
3:55 AM,33.8,10.6,38,29.98,10.0,WSW,8.1,-,N/A,,Clear,240,2014-01-25 09:55:00
4:15 AM,33.3,10.9,40,29.99,10.0,WSW,8.1,-,N/A,,Clear,250,2014-01-25 10:15:00
4:35 AM,33.8,11.1,39,30.00,10.0,WSW,6.9,-,N/A,,Clear,250,2014-01-25 10:35:00
4:55 AM,32.9,11.5,41,30.00,10.0,WSW,6.9,-,N/A,,Clear,240,2014-01-25 10:55:00
5:15 AM,33.4,11.8,41,30.00,10.0,Calm,Calm,-,N/A,,Clear,0,2014-01-25 11:15:00
5:35 AM,33.3,11.8,41,30.00,10.0,West,6.9,-,N/A,,Clear,260,2014-01-25 11:35:00
5:55 AM,34.0,12.2,41,30.01,10.0,West,5.8,-,N/A,,Clear,260,2014-01-25 11:55:00
6:15 AM,33.4,12.9,43,30.01,10.0,WSW,5.8,-,N/A,,Clear,250,2014-01-25 12:15:00
6:35 AM,33.8,13.6,44,30.02,10.0,WSW,5.8,-,N/A,,Clear,250,2014-01-25 12:35:00
6:55 AM,34.5,14.0,43,30.03,10.0,WSW,5.8,-,N/A,,Clear,250,2014-01-25 12:55:00
7:15 AM,34.7,14.4,43,30.03,10.0,West,4.6,-,N/A,,Clear,260,2014-01-25 13:15:00
7:35 AM,33.8,14.7,46,30.03,10.0,WSW,4.6,-,N/A,,Clear,250,2014-01-25 13:35:00
7:55 AM,35.1,16.0,46,30.04,10.0,NW,5.8,-,N/A,,Clear,310,2014-01-25 13:55:00
8:15 AM,37.0,16.7,44,30.05,10.0,NNW,4.6,16.1,N/A,,Clear,330,2014-01-25 14:15:00
8:35 AM,39.4,18.1,42,30.05,10.0,NW,6.9,-,N/A,,Clear,310,2014-01-25 14:35:00
8:55 AM,41.2,19.2,41,30.06,10.0,WNW,5.8,-,N/A,,Clear,290,2014-01-25 14:55:00
9:15 AM,43.9,21.2,41,30.06,10.0,West,8.1,-,N/A,,Clear,270,2014-01-25 15:15:00
9:35 AM,46.2,22.6,39,30.07,10.0,West,5.8,-,N/A,,Clear,270,2014-01-25 15:35:00
9:55 AM,48.2,24.1,39,30.07,10.0,West,4.6,-,N/A,,Clear,260,2014-01-25 15:55:00
10:15 AM,50.7,25.5,38,30.07,10.0,West,9.2,-,N/A,,Clear,280,2014-01-25 16:15:00
10:35 AM,53.2,27.1,37,30.07,10.0,NW,5.8,-,N/A,,Clear,310,2014-01-25 16:35:00
10:55 AM,56.8,31.3,38,30.06,10.0,NNW,9.2,-,N/A,,Clear,340,2014-01-25 16:55:00
11:15 AM,59.7,33.3,37,30.06,10.0,North,15.0,21.9,N/A,,Clear,350,2014-01-25 17:15:00
11:35 AM,59.5,33.1,37,30.06,10.0,NNW,12.7,26.5,N/A,,Clear,340,2014-01-25 17:35:00
11:55 AM,59.4,32.9,37,30.06,10.0,North,19.6,27.6,N/A,,Clear,360,2014-01-25 17:55:00
12:15 PM,60.6,33.3,36,30.04,10.0,NNW,13.8,23.0,N/A,,Clear,330,2014-01-25 18:15:00
12:35 PM,61.5,33.6,35,30.04,10.0,WNW,12.7,20.7,N/A,,Clear,300,2014-01-25 18:35:00
12:55 PM,63.3,34.0,33,30.03,10.0,NW,6.9,19.6,N/A,,Clear,320,2014-01-25 18:55:00
1:15 PM,63.3,34.2,34,30.02,10.0,NW,11.5,21.9,N/A,,Clear,320,2014-01-25 19:15:00
1:35 PM,63.5,33.8,33,30.01,10.0,WNW,13.8,20.7,N/A,,Clear,290,2014-01-25 19:35:00
1:55 PM,63.7,33.4,32,30.00,10.0,NNW,9.2,17.3,N/A,,Clear,330,2014-01-25 19:55:00
2:15 PM,64.2,33.1,31,30.00,10.0,NW,11.5,21.9,N/A,,Clear,320,2014-01-25 20:15:00
2:35 PM,64.2,33.4,32,29.99,10.0,WNW,16.1,24.2,N/A,,Scattered Clouds,300,2014-01-25 20:35:00
2:55 PM,64.4,33.3,31,29.98,10.0,NNW,11.5,21.9,N/A,,Clear,330,2014-01-25 20:55:00
3:15 PM,64.9,33.8,31,29.99,10.0,NNW,12.7,18.4,N/A,,Clear,330,2014-01-25 21:15:00
3:35 PM,64.4,32.0,30,29.99,10.0,NNW,13.8,23.0,N/A,,Clear,330,2014-01-25 21:35:00
3:55 PM,64.0,32.0,30,29.99,10.0,NNW,10.4,18.4,N/A,,Clear,330,2014-01-25 21:55:00
4:15 PM,63.5,31.6,30,29.99,10.0,North,16.1,23.0,N/A,,Clear,350,2014-01-25 22:15:00
4:35 PM,62.6,31.6,31,30.00,10.0,NNW,15.0,20.7,N/A,,Clear,330,2014-01-25 22:35:00
4:55 PM,61.3,32.0,33,30.00,10.0,NNW,11.5,17.3,N/A,,Clear,340,2014-01-25 22:55:00
5:15 PM,59.9,32.0,35,30.00,10.0,NW,6.9,-,N/A,,Clear,310,2014-01-25 23:15:00
5:35 PM,54.7,31.6,42,30.00,10.0,NNW,5.8,-,N/A,,Clear,340,2014-01-25 23:35:00
5:55 PM,51.4,31.1,46,30.00,10.0,NNE,10.4,16.1,N/A,,Clear,20,2014-01-25 23:55:00
6:15 PM,48.9,30.9,50,30.01,10.0,NNE,8.1,-,N/A,,Clear,30,2014-01-26 00:15:00
6:35 PM,47.8,30.6,51,30.01,10.0,NNE,5.8,-,N/A,,Clear,30,2014-01-26 00:35:00
6:55 PM,46.9,30.6,53,30.01,10.0,NE,4.6,-,N/A,,Clear,40,2014-01-26 00:55:00
7:15 PM,44.6,30.4,57,30.01,10.0,Calm,Calm,-,N/A,,Clear,0,2014-01-26 01:15:00
7:35 PM,46.4,30.4,54,30.01,10.0,NE,3.5,-,N/A,,Clear,50,2014-01-26 01:35:00
7:55 PM,45.5,30.0,55,30.00,10.0,East,3.5,-,N/A,,Clear,80,2014-01-26 01:55:00
8:15 PM,38.1,28.4,68,30.00,10.0,South,4.6,-,N/A,,Clear,170,2014-01-26 02:15:00
9:15 PM,38.1,28.6,69,29.99,10.0,Calm,Calm,-,N/A,,Clear,0,2014-01-26 03:15:00
9:35 PM,37.9,28.4,69,29.98,10.0,Calm,Calm,-,N/A,,Clear,0,2014-01-26 03:35:00
9:55 PM,37.2,28.9,72,29.98,10.0,Calm,Calm,-,N/A,,Clear,0,2014-01-26 03:55:00
10:15 PM,37.4,29.3,73,29.98,10.0,Calm,Calm,-,N/A,,Clear,0,2014-01-26 04:15:00
10:35 PM,35.1,28.8,78,29.97,10.0,WNW,3.5,-,N/A,,Clear,300,2014-01-26 04:35:00
10:55 PM,32.2,27.5,83,29.96,10.0,Calm,Calm,-,N/A,,Clear,0,2014-01-26 04:55:00
11:15 PM,33.1,27.5,80,29.96,10.0,Calm,Calm,-,N/A,,Clear,0,2014-01-26 05:15:00
11:35 PM,32.2,27.3,82,29.94,10.0,Calm,Calm,-,N/A,,Clear,0,2014-01-26 05:35:00
11:55 PM,30.6,26.8,86,29.94,10.0,Calm,Calm,-,N/A,,Clear,0,2014-01-26 05:55:00